Location: Terschelling
(53.4100°N, 5.3500°E)
Time: 22:16:44
(UTC+01:00)

AAUSAT CUBESAT 2 - Visible Passes

Search period start: 29 November 2023 00:00
Search period end: 09 December 2023 00:00
Orbit: 534 x 546 km, 97.6° (Epoch: 29 November)

Date Brightness Start Highest point End Pass type
(mag) Time Alt. Az. Time Alt. Az. Time Alt. Az.
29 Nov ? 06:20:52 10° N 06:21:20 12° N 06:21:20 12° N visible
29 Nov ? 17:11:11 10° SW 17:14:03 19° W 17:16:56 10° NW visible
30 Nov ? 06:13:30 10° N 06:13:49 12° N 06:13:49 12° N visible
30 Nov ? 17:03:35 10° SW 17:06:42 22° W 17:09:50 10° NW visible
01 Dec ? 06:06:07 10° N 06:06:16 11° N 06:06:16 11° N visible
02 Dec ? 05:58:42 10° N 05:58:43 10° N 05:58:43 10° N visible
08 Dec ? 17:41:09 10° W 17:42:05 11° W 17:43:00 10° WNW visible
